[[{"header":{"parameterUnit":"m.s-1","parameterCategory":1,"la1":30.2991,"la2":30.254,"lo1":-89.0895,"lo2":-89.0444,"dy":0.0017,"dx":0.0017,"nx":28,"ny":28,"refTime":"2024-04-22T21:00:00:Z","depth":0,"parameterNumber":2,"parameterNumberName":"U-component_of_WINDS"},"data":[0,0,0,0,0,0,0,0,0,0,0,0,0,0,0,0,0,0,0,0,0,0,0,0,0,0,0,0,0,0,0,0,0,0,0,0,0,0,0,0,0,0,0,0,0,0,0,0,0,0,0,0,0,0,0,0,0,0,-0.2879,-0.2879,0,-0.2913,-0.2913,-0.2914,-0.2926,-0.2926,-0.2926,-0.2926,-0.2963,-0.2964,-0.2965,0,0,0,0,0,0,0,0,0,0,0,0,0,-0.2828,-0.2829,-0.2879,-0.2879,-0.288,-0.2913,-0.2913,-0.2914,-0.2926,-0.2926,-0.2926,-0.2926,-0.2963,-0.2964,-0.2965,0,0,0,0,0,0,0,0,0,0,0,0,0,-0.2855,-0.2829,-0.2879,-0.289,-0.2891,-0.2913,-0.2913,-0.2914,-0.2926,-0.2926,-0.2926,-0.2926,-0.2962,-0.2964,-0.2965,-0.2979,0,0,-0.297,-0.2971,0,0,0,0,0,0,0,0,-0.2853,-0.2857,-0.2888,-0.2889,-0.2891,-0.2915,-0.2909,-0.2936,-0.2927,-0.2913,-0.2926,-0.2926,-0.2947,-0.295,-0.2957,-0.2981,-0.2982,-0.2971,-0.2972,-0.2972,-0.2973,0,0,0,0,0,0,0,-0.2852,-0.2855,-0.2892,-0.2888,-0.289,-0.2894,-0.2898,-0.2914,-0.2931,-0.2914,-0.2915,-0.2919,-0.2948,-0.2955,-0.2958,-0.2983,-0.2971,-0.2972,-0.2973,-0.2974,-0.3021,-0.3021,0,0,0,0,0,0,-0.2847,-0.2854,-0.2891,-0.2893,-0.2871,-0.2895,-0.2899,-0.2908,-0.2931,-0.2934,-0.2919,-0.292,-0.2953,-0.2956,-0.2959,-0.2977,-0.2972,-0.2974,-0.2975,-0.3021,-0.3021,-0.3021,0,0,0,0,0,0,-0.2846,-0.2851,-0.289,-0.2874,-0.2879,-0.2896,-0.2905,-0.2908,-0.2916,-0.2934,-0.2938,-0.2923,-0.2953,-0.2957,-0.2974,-0.2979,-0.2975,-0.2976,-0.302,-0.3021,-0.3021,-0.3013,0,0,0,0,0,0,-0.2845,-0.285,-0.2854,-0.2874,-0.288,-0.2903,-0.2906,-0.2909,-0.2918,-0.2919,-0.2939,-0.2942,-0.2953,-0.2972,-0.2976,-0.2981,-0.2977,-0.302,-0.302,-0.3021,-0.3013,-0.3013,-0.3013,0,0,0,0,0,-0.2843,-0.2851,-0.2855,-0.2859,-0.2886,-0.2903,-0.2907,-0.2918,-0.2918,-0.2923,-0.2936,-0.2942,-0.2978,-0.2973,-0.2978,-0.2984,-0.302,-0.302,-0.3021,-0.3013,-0.3013,-0.3013,0,0,0,0,0,0,-0.2832,-0.2854,-0.2858,-0.2872,-0.2886,-0.2905,-0.2912,-0.2918,-0.2932,-0.2932,-0.2947,-0.2951,-0.2967,-0.2978,-0.2972,-0.2999,-0.2999,-0.3001,-0.2991,-0.2992,-0.2992,-0.2989,-0.2979,0,0,0,0,0,-0.2831,-0.2843,-0.2861,-0.2872,-0.2879,-0.2894,-0.2902,-0.291,-0.2925,-0.2931,-0.2944,-0.2959,-0.2974,-0.2984,-0.2998,-0.3015,-0.302,-0.3021,-0.3021,-0.3021,-0.3022,-0.3033,-0.3034,-0.3023,-0.3023,-0.3023,0,0,-0.2829,-0.2843,-0.2849,-0.287,-0.2882,-0.2894,-0.2899,-0.2912,-0.2922,-0.2933,-0.295,-0.2961,-0.2979,-0.2996,-0.3004,-0.3004,-0.3027,-0.3022,-0.3022,-0.3023,-0.3034,-0.3035,-0.3036,-0.3024,-0.3024,-0.3024,0,0,-0.2833,-0.2844,-0.2855,-0.2866,-0.2883,-0.2894,-0.2897,-0.2916,-0.2923,-0.294,-0.2949,-0.2962,-0.2987,-0.3,-0.3009,-0.302,-0.3026,-0.3025,-0.3025,-0.3035,-0.3036,-0.3037,-0.3041,-0.3043,-0.3026,-0.3026,-0.3026,0,-0.2829,-0.2847,-0.286,-0.2872,-0.2882,-0.2893,-0.2905,-0.2915,-0.2937,-0.2944,-0.2944,-0.2977,-0.299,-0.301,-0.3013,-0.302,-0.3025,-0.3022,-0.3035,-0.3036,-0.3037,-0.3041,-0.3043,-0.3025,-0.3025,-0.3026,-0.3026,0,-0.2842,-0.2855,-0.2862,-0.2882,-0.2892,-0.2905,-0.292,-0.2929,-0.2937,-0.2948,-0.2966,-0.2982,-0.3001,-0.3006,-0.3014,-0.3029,-0.3029,-0.3032,-0.3033,-0.3037,-0.3042,-0.3044,-0.3025,-0.3025,-0.3025,-0.3025,0,0,-0.2838,-0.2866,-0.2868,-0.2878,-0.2898,-0.2909,-0.2923,-0.2941,-0.2949,-0.2964,-0.2976,-0.2998,-0.3002,-0.3013,-0.3022,-0.3031,-0.304,-0.3034,-0.3035,-0.3035,-0.3058,-0.3055,-0.3057,-0.3044,-0.3045,-0.3045,-0.3057,0,-0.2844,-0.2868,-0.288,-0.2899,-0.2912,-0.2923,-0.2935,-0.295,-0.2961,-0.2975,-0.2988,-0.3003,-0.3006,-0.3013,-0.3023,-0.3037,-0.3045,-0.3036,-0.3057,-0.3058,-0.3051,-0.3059,-0.3056,-0.3066,-0.3059,-0.3059,-0.3059,0,-0.2854,-0.2869,-0.2889,-0.2909,-0.2915,-0.2926,-0.2944,-0.2956,-0.2974,-0.2982,-0.2995,-0.3004,-0.3021,-0.3021,-0.3044,-0.3038,-0.3048,-0.3056,-0.3057,-0.3059,-0.3058,-0.3061,-0.307,-0.3071,-0.3062,-0.3062,-0.3061,0,-0.285,-0.2875,-0.289,-0.2898,-0.2922,-0.2929,-0.294,-0.2958,-0.2968,-0.2985,-0.2992,-0.301,-0.302,-0.3035,-0.305,-0.3048,-0.3072,-0.3073,-0.308,-0.3079,-0.3083,-0.3083,-0.3093,-0.309,-0.309,-0.309,-0.309,0,-0.2855,-0.2867,-0.2888,-0.2898,-0.2912,-0.2927,-0.2941,-0.2953,-0.2969,-0.2981,-0.2993,-0.3005,-0.3024,-0.3039,-0.3051,-0.3069,-0.3074,-0.3081,-0.3084,-0.308,-0.3079,-0.3086,-0.3086,-0.309,-0.309,-0.309,-0.309,0,-0.2852,-0.2866,-0.2884,-0.2906,-0.2912,-0.2921,-0.2941,-0.2951,-0.2964,-0.298,-0.2985,-0.3004,-0.3023,-0.3039,-0.3064,-0.3072,-0.3091,-0.3094,-0.3084,-0.3086,-0.3091,-0.3091,-0.3106,-0.3109,-0.3104,-0.3104,-0.3104,0,-0.2854,-0.2863,-0.2886,-0.2896,-0.2906,-0.2921,-0.2931,-0.2947,-0.2958,-0.298,-0.2989,-0.3008,-0.3024,-0.3053,-0.307,-0.309,-0.3094,-0.3098,-0.3097,-0.3093,-0.3094,-0.3093,-0.3095,-0.3098,-0.3098,-0.3098,-0.3098,0,-0.2857,-0.2864,-0.2878,-0.2896,-0.2909,-0.2924,-0.2939,-0.2946,-0.2965,-0.2977,-0.2996,-0.3009,-0.3034,-0.3054,-0.3075,-0.3088,-0.3096,-0.3098,-0.3101,-0.3096,-0.309,-0.3094,-0.3084,-0.3098,-0.3098,-0.3098,-0.3098,-0.3098,-0.2856,-0.2865,-0.2883,-0.29,-0.2913,-0.2928,-0.2939,-0.2953,-0.2968,-0.299,-0.2999,-0.3018,-0.3038,-0.3067,-0.308,-0.3096,-0.3098,-0.3102,-0.3102,-0.3103,-0.3102,-0.3088,-0.31,-0.3101,-0.3101,-0.3101,-0.3101,0,-0.2859,-0.2872,-0.2887,-0.2908,-0.2921,-0.2928,-0.2946,-0.2957,-0.2974,-0.2991,-0.3007,-0.3029,-0.3049,-0.3068,-0.3089,-0.3098,-0.3103,-0.3103,-0.3102,-0.3105,-0.31,-0.3095,-0.3099,-0.3099,-0.3099,-0.3099,-0.3099,-0.3099,-0.2863,-0.2879,-0.2888,-0.2912,-0.2925,-0.2943,-0.2953,-0.2967,-0.2981,-0.3005,-0.3021,-0.3034,-0.3052,-0.3075,-0.3094,-0.3099,-0.3106,-0.3105,-0.3112,-0.3106,-0.3106,-0.3106,-0.3102,-0.3107,-0.3107,-0.3116,-0.3116,-0.3116]},{"header":{"parameterUnit":"m.s-1","parameterCategory":1,"la1":30.2991,"la2":30.254,"lo1":-89.0895,"lo2":-89.0444,"dy":0.0017,"dx":0.0017,"nx":28,"ny":28,"refTime":"2024-04-22T21:00:00:Z","depth":0,"parameterNumber":3,"parameterNumberName":"V-component_of_WINDS"},"data":[0,0,0,0,0,0,0,0,0,0,0,0,0,0,0,0,0,0,0,0,0,0,0,0,0,0,0,0,0,0,0,0,0,0,0,0,0,0,0,0,0,0,0,0,0,0,0,0,0,0,0,0,0,0,0,0,0,0,0.1291,0.1291,0,0.1298,0.1298,0.1298,0.1312,0.1312,0.1312,0.1313,0.1318,0.1318,0.1318,0,0,0,0,0,0,0,0,0,0,0,0,0,0.1289,0.1289,0.1291,0.1291,0.1291,0.1298,0.1298,0.1298,0.1312,0.1312,0.1312,0.1313,0.1318,0.1318,0.1318,0,0,0,0,0,0,0,0,0,0,0,0,0,0.1292,0.1289,0.1291,0.1299,0.1299,0.1298,0.1298,0.1298,0.1312,0.1312,0.1312,0.1313,0.1318,0.1318,0.1318,0.1309,0,0,0.1317,0.1317,0,0,0,0,0,0,0,0,0.1292,0.1292,0.1297,0.1298,0.1299,0.1304,0.13,0.1302,0.1312,0.1307,0.1313,0.1313,0.1313,0.1313,0.1314,0.1309,0.1309,0.1317,0.1317,0.1317,0.1317,0,0,0,0,0,0,0,0.1292,0.1292,0.1294,0.1297,0.1298,0.1302,0.1303,0.13,0.1308,0.1307,0.1308,0.1309,0.1314,0.1314,0.1314,0.1309,0.1317,0.1317,0.1317,0.1317,0.1301,0.13,0,0,0,0,0,0,0.129,0.1292,0.1293,0.1294,0.1296,0.1302,0.1303,0.1302,0.1308,0.1309,0.1309,0.131,0.1314,0.1314,0.1314,0.1306,0.1317,0.1317,0.1317,0.1301,0.1301,0.13,0,0,0,0,0,0,0.129,0.129,0.1293,0.1293,0.1294,0.1301,0.1301,0.1302,0.1303,0.1309,0.131,0.1308,0.1314,0.1314,0.1311,0.1306,0.1317,0.1317,0.1301,0.1301,0.13,0.1288,0,0,0,0,0,0,0.129,0.129,0.1287,0.1293,0.1294,0.1289,0.13,0.1302,0.1302,0.1304,0.1308,0.1309,0.1315,0.1311,0.1311,0.1306,0.1317,0.1302,0.1301,0.1301,0.1289,0.1287,0.1286,0,0,0,0,0,0.129,0.1282,0.1286,0.1287,0.1289,0.1289,0.1289,0.1296,0.1302,0.1299,0.1303,0.1309,0.1307,0.1311,0.131,0.1306,0.1302,0.1301,0.1301,0.129,0.1287,0.1286,0,0,0,0,0,0,0.1274,0.1283,0.1288,0.1281,0.1285,0.1291,0.1287,0.1293,0.1294,0.1296,0.1304,0.1305,0.13,0.1303,0.1307,0.1299,0.1306,0.1305,0.1297,0.1295,0.1294,0.1293,0.1317,0,0,0,0,0,0.127,0.1269,0.1277,0.127,0.1272,0.1279,0.1279,0.1285,0.1288,0.1289,0.1293,0.1296,0.1296,0.1296,0.1296,0.1289,0.1291,0.1286,0.1285,0.1283,0.1283,0.1281,0.128,0.1298,0.1298,0.1298,0,0,0.126,0.1265,0.1264,0.1267,0.127,0.127,0.128,0.1278,0.1278,0.1289,0.1286,0.1289,0.1293,0.1289,0.1287,0.129,0.1278,0.1282,0.1281,0.1281,0.128,0.1279,0.1277,0.1297,0.1297,0.1297,0,0,0.1244,0.1247,0.1243,0.1247,0.1252,0.1257,0.1257,0.1263,0.1266,0.1264,0.1272,0.1272,0.1272,0.1275,0.1276,0.1264,0.127,0.1264,0.1255,0.1254,0.1253,0.1251,0.1248,0.1247,0.1263,0.1263,0.1263,0,0.1232,0.1232,0.124,0.1239,0.1241,0.1252,0.1248,0.1251,0.1256,0.1257,0.1261,0.1263,0.1266,0.1263,0.126,0.1261,0.1261,0.1263,0.1252,0.1251,0.125,0.1247,0.1246,0.1262,0.1262,0.1262,0.1262,0,0.1218,0.1217,0.1214,0.1219,0.1221,0.1218,0.1227,0.1228,0.1234,0.1239,0.1238,0.1242,0.1245,0.1244,0.1249,0.1243,0.1245,0.1251,0.1258,0.1248,0.1245,0.1244,0.1261,0.1262,0.1262,0.1262,0,0,0.1189,0.1202,0.12,0.1204,0.1212,0.1212,0.1211,0.1214,0.1215,0.1219,0.1218,0.1219,0.1225,0.1227,0.1233,0.1231,0.1224,0.1237,0.1237,0.1235,0.1219,0.1215,0.1214,0.1228,0.1228,0.1227,0.1219,0,0.1175,0.1174,0.1183,0.118,0.1181,0.1192,0.1192,0.1197,0.1202,0.1204,0.121,0.1211,0.1218,0.1219,0.1219,0.1225,0.122,0.1225,0.1228,0.1228,0.1227,0.1212,0.1208,0.1199,0.1218,0.1218,0.1217,0,0.1158,0.1162,0.1159,0.117,0.117,0.1169,0.1175,0.1176,0.1182,0.1187,0.119,0.1197,0.1197,0.1205,0.1206,0.1209,0.1211,0.1214,0.1214,0.1215,0.1222,0.1213,0.1196,0.1196,0.1216,0.1216,0.1216,0,0.114,0.1144,0.1144,0.1147,0.1158,0.1157,0.1162,0.1169,0.1171,0.1176,0.1178,0.1182,0.1184,0.1187,0.1196,0.12,0.1197,0.1204,0.1201,0.12,0.1199,0.1199,0.1183,0.1199,0.1199,0.1199,0.1199,0,0.1123,0.1121,0.1136,0.1136,0.1135,0.1146,0.1144,0.115,0.1156,0.1158,0.1168,0.1169,0.118,0.1183,0.1189,0.119,0.1191,0.1195,0.1196,0.1194,0.1194,0.1195,0.1196,0.1199,0.1199,0.1199,0.1199,0,0.1102,0.1112,0.1112,0.1124,0.1127,0.1126,0.1135,0.1136,0.1143,0.1145,0.1146,0.1157,0.1161,0.117,0.1176,0.118,0.118,0.1183,0.1178,0.1179,0.1176,0.1176,0.1161,0.116,0.1176,0.1176,0.1175,0,0.1091,0.109,0.1102,0.1104,0.1109,0.1112,0.1115,0.1127,0.1129,0.1138,0.1138,0.1143,0.1147,0.1153,0.1161,0.1167,0.117,0.1165,0.1171,0.1169,0.1171,0.1171,0.1172,0.1163,0.1163,0.1163,0.1162,0,0.1071,0.1077,0.1081,0.1087,0.1091,0.1097,0.1103,0.1104,0.1117,0.112,0.1124,0.1128,0.1135,0.1141,0.1147,0.1152,0.116,0.1161,0.116,0.1158,0.1155,0.1158,0.1175,0.1161,0.1161,0.1161,0.1161,0.1161,0.1055,0.1056,0.1065,0.107,0.1076,0.1082,0.1084,0.1092,0.1097,0.1104,0.1111,0.1115,0.1124,0.1134,0.1138,0.1142,0.1146,0.1145,0.1145,0.1145,0.1144,0.1155,0.1143,0.1143,0.1144,0.1144,0.1144,0,0.1037,0.1044,0.1049,0.1058,0.1062,0.107,0.1078,0.1081,0.1085,0.1092,0.1097,0.1104,0.111,0.1119,0.1126,0.1127,0.1131,0.1129,0.1129,0.113,0.114,0.114,0.1126,0.1126,0.1126,0.1126,0.1126,0.1126,0.1028,0.103,0.1037,0.1043,0.105,0.1055,0.1059,0.1065,0.1071,0.1079,0.1084,0.109,0.1099,0.1107,0.1113,0.1116,0.1118,0.1114,0.1118,0.1127,0.1129,0.1131,0.1131,0.1115,0.1115,0.1108,0.1108,0.1108]}]]